Location: Nitra
(0.0000°N, 18.0833°E)
Time: 06:01:03
(UTC+01:00)

Cosmos 1655 Rocket - Pass Details

Date: 24 January 2021
Orbit: 971 x 1005 km, 83.0° (Epoch: 04 March)

Event Time Altitude Azimuth Distance (km) Brightness Sun altitude
Rises 18:38:27 0° 174° (S) 3,703 7.2 -9.1°
Reaches altitude 10° 18:41:03 10° 169° (S) 2,747 6.5 -9.7°
Maximum altitude 18:47:09 54° 93° (E) 1,181 4.1 -11.2°
Drops below altitude 10° 18:53:11 10° 17° (NNE) 2,715 6.0 -12.6°
Sets 18:55:44 0° 13° (NNE) 3,656 6.7 -13.2°
